Flag for Germany Weather past 2 weeks in Cottbus, Brandenburg, Germany

Now
35 °F

Sunny.


Feels Like: 31 °F
Forecast: 29 / 37 °F
Wind: 5 mph from Southwest

Location: Cottbus

Current Time: Jan 29, 2015 at 9:31:45 AM

Latest Report: Jan 29, 2015 at 9:00 AM


Visibility: 28 mi

Pressure: 29.32 "Hg

Humidity: 76%

Dew point: 28 °F

Location of CottbusLocation

Historic Weather in Cottbus — Graph

°F

Cottbus temperature yesterday

Maximum temperature yesterday: 42 °F (at 3:00 PM)
Minimum temperature yesterday: 35 °F (at 3:00 AM)
Average temperature yesterday: 38 °F

Past Weeks' High & Low Weather Summary

 TemperatureHumidityPressure
High48 °F (Jan 16, 12:00 AM)100% (Jan 17, 9:00 PM)30.33 "Hg (Jan 17, 9:00 PM)
Low25 °F (Jan 19, 3:00 AM)55% (Jan 16, 12:00 AM)29.32 "Hg (Jan 29, 1:00 AM)
Average36 °F87%29.97 "Hg
* Reported Jan 14 8:00 AM — Jan 29 8:00 AM, Cottbus, Weather by CustomWeather, © 2014

Note: Actual official high and low records may vary slightly from our data, if they occured in-between our weather recording intervals... More about our weather records

Advertising

Cottbus weather history for previous 24 hours

 ConditionsComfort  
Time TempWeatherWind HumidityBarometerVisibility
8:00 AM
Jan 29
35 °FOvercast.6 mph77%29.35 "Hg31 mi
7:00 AM36 °FOvercast.6 mph79%29.35 "Hg34 mi
6:00 AM36 °FOvercast.7 mph81%29.32 "Hg34 mi
5:00 AM36 °FOvercast.5 mph85%29.32 "Hg31 mi
4:00 AM37 °FDrizzle. Overcast.6 mph88%29.32 "Hg28 mi
3:00 AM37 °FOvercast.5 mph91%29.32 "Hg28 mi
2:00 AM38 °FOvercast.7 mph89%29.32 "Hg25 mi
1:00 AM37 °FOvercast.5 mph95%29.32 "Hg12 mi
12:00 AM36 °FLight rain. Low clouds.6 mph95%29.35 "Hg4 mi
11:00 PM
Jan 28
37 °FLight rain. Low clouds.7 mph93%29.35 "Hg5 mi
10:00 PM40 °FLight freezing rain. Low clouds.6 mph75%29.38 "Hg7 mi
9:00 PM40 °FOvercast.6 mph70%29.41 "Hg17 mi
8:00 PM40 °FOvercast.6 mph71%29.50 "Hg18 mi
6:00 PM40 °FOvercast.6 mph71%29.61 "Hg19 mi
5:00 PM40 °FOvercast.6 mph71%29.66 "Hg17 mi
4:00 PM41 °FOvercast.7 mph71%29.71 "Hg16 mi
3:00 PM42 °FOvercast.6 mph72%29.74 "Hg16 mi
2:00 PM41 °FOvercast.6 mph74%29.80 "Hg17 mi
1:00 PM40 °FOvercast.6 mph75%29.85 "Hg17 mi
12:00 PM40 °FOvercast.6 mph82%29.88 "Hg14 mi
11:00 AM39 °FOvercast.5 mph86%29.93 "Hg13 mi
10:00 AM38 °FOvercast.5 mph86%29.94 "Hg14 mi
9:00 AM36 °FLow clouds.3 mph91%29.97 "Hg10 mi
Weather by CustomWeather, © 2014

See weather overviewHow to use our weather pages